Flag for Afghanistan Weather past 2 weeks in Mazari Sharif, Afghanistan

Now
109 °F

Passing clouds.


Feels Like: 104 °F
Forecast: 89 / 111 °F
Wind: 7 mph from Southwest

Location: Termez Airport

Current Time: Jul 4, 2015 at 2:51:13 PM

Latest Report: Jul 4, 2015 at 2:00 PM


Visibility: N/A

Pressure: 29.56 "Hg

Humidity: 10%

Dew point: 41 °F

Location of Mazari SharifLocation

Historic Weather in Mazari Sharif — Graph

°F

Mazari Sharif temperature yesterday

Maximum temperature yesterday: 111 °F (at 2:30 PM)
Minimum temperature yesterday: 75 °F (at 3:00 AM)
Average temperature yesterday: 94 °F

Past Weeks' High & Low Weather Summary

 TemperatureHumidityPressure
High111 °F (Jul 3, 2:30 PM)100% (Jun 29, 5:00 PM)29.74 "Hg (Jun 29, 5:00 PM)
Low66 °F (Jun 21, 4:30 AM)8% (Jun 20, 1:30 PM)29.45 "Hg (Jun 22, 4:00 PM)
Average91 °F27%29.58 "Hg
* Reported Jun 19 1:30 PM — Jul 4 1:30 PM, Mazari Sharif, Weather by CustomWeather, © 2015

Note: Actual official high and low records may vary slightly from our data, if they occured in-between our weather recording intervals... More about our weather records

Advertising

Mazari Sharif weather history for previous 24 hours

 ConditionsComfort  
Time TempWeatherWind HumidityBarometerVisibility
1:30 PM
Sat, Jul 4
109 °FPassing clouds.8 mph10%29.59 "HgN/A
1:00 PM108 °FPassing clouds.8 mph12%29.59 "HgN/A
12:30 PM106 °FPassing clouds.7 mph13%29.62 "HgN/A
12:00 PM104 °FPassing clouds.6 mph17%29.62 "HgN/A
11:30 AM102 °FPassing clouds.7 mph20%29.62 "HgN/A
11:00 AM102 °FPassing clouds.12 mph18%29.65 "HgN/A
10:30 AM100 °FPassing clouds.10 mph20%29.65 "HgN/A
10:00 AM97 °FSunny.9 mph22%29.65 "Hg10 mi
9:30 AM95 °FPassing clouds.8 mph25%29.65 "HgN/A
9:00 AM93 °FPassing clouds.8 mph28%29.65 "HgN/A
8:30 AM90 °FSunny.7 mph33%29.65 "Hg10 mi
8:00 AM88 °FSunny.7 mph31%29.65 "Hg10 mi
7:30 AM84 °FPassing clouds.6 mph35%29.65 "HgN/A
7:00 AM82 °FSunny.6 mph40%29.65 "Hg10 mi
6:30 AM82 °FPassing clouds.2 mph37%29.65 "HgN/A
5:30 AM75 °FPassing clouds.3 mph57%29.62 "HgN/A
4:30 AM75 °FClear.No wind61%29.62 "Hg10 mi
3:30 AM75 °FClear.1 mph57%29.59 "Hg10 mi
1:30 AM79 °FClear.3 mph51%29.59 "Hg10 mi
12:30 AM81 °FClear.3 mph42%29.59 "Hg10 mi
11:30 PM
Fri, Jul 3
82 °FClear.7 mph35%29.59 "Hg10 mi
10:30 PM90 °FPassing clouds.1 mph29%29.59 "HgN/A
10:00 PM90 °FClear.3 mph33%29.59 "Hg10 mi
9:30 PM88 °FClear.5 mph43%29.59 "Hg10 mi
9:00 PM91 °FClear.2 mph38%29.59 "Hg10 mi
8:30 PM93 °FClear.2 mph32%29.59 "Hg10 mi
8:00 PM97 °FPassing clouds.2 mph27%29.59 "HgN/A
7:30 PM97 °FClear.2 mph32%29.59 "Hg10 mi
7:00 PM100 °FSunny.1 mph20%29.56 "Hg10 mi
6:30 PM106 °FSunny.No wind20%29.56 "Hg10 mi
6:00 PM108 °FPassing clouds.2 mph14%29.56 "HgN/A
5:30 PM111 °FSunny.No wind9%29.56 "Hg10 mi
5:00 PM109 °FSunny.2 mph10%29.59 "Hg10 mi
4:30 PM111 °FPassing clouds.1 mph10%29.59 "HgN/A
4:00 PM111 °FPassing clouds.3 mph11%29.59 "HgN/A
3:30 PM111 °FPassing clouds.6 mph11%29.59 "HgN/A
3:00 PM111 °FPassing clouds.5 mph9%29.62 "HgN/A
2:30 PM111 °FPassing clouds.6 mph11%29.62 "HgN/A
2:00 PM109 °FPassing clouds.5 mph10%29.62 "HgN/A
Weather by CustomWeather, © 2015

See weather overviewHow to use our weather pages